Regional Weather Roundup
Issued by NWS

Home | Current Version | Previous Version | Graphics & Text | Print | Product List | Glossary On
Versions: 1 2 3 4 5 6 7 8 9 10 11 12 13 14 15 16 17 18 19 20 21 22 23 24 25 26 27 28 29 30 31 32 33 34 35 36 37 38 39 40 41 42 43 44 45 46 47 48 49 50
000
ASUS45 KPSR 202310
RWRAZ

ARIZONA HOURLY REGIONAL WEATHER ROUNDUP
NATIONAL WEATHER SERVICE PHOENIX AZ
400 PM MST MON FEB 20 2017

NOTE: FAIR INDICATES FEW OR NO CLOUDS BELOW 12,000 FEET WITH NO
SIGNIFICANT WEATHER AND/OR OBSTRUCTIONS TO VISIBILITY.

AZZ001>003-036-210000-
NORTHWEST ARIZONA

CITY           SKY/WX    TMP DP  RH WIND       PRES   REMARKS
BULLHEAD CITY  MOSUNNY   68  50  52 SW13      30.19S
KINGMAN        MOSUNNY   59  34  39 SW15      30.23S
$$

AZZ004>008-015-016-018-210000-
NORTH CENTRAL ARIZONA

CITY           SKY/WX    TMP DP  RH WIND       PRES   REMARKS
GRAND CANYON   CLOUDY    45  38  76 SW10      30.27S
WILLIAMS       MOSUNNY   48  37  66 VRB7      30.29F
PRESCOTT       PTSUNNY   55  40  56 SW7       30.27S
FLAGSTAFF      MOSUNNY   48  35  60 W10       30.29R
PAYSON         MOSUNNY   54  39  58 VRB6G12   30.31S
PAGE           CLOUDY    54  34  46 N7        30.19F
$$

AZZ009>014-017-210000-
NORTHEAST ARIZONA

CITY           SKY/WX    TMP DP  RH WIND       PRES   REMARKS
WINSLOW        SUNNY     60  36  40 S6        30.23F
SAINT JOHNS    SUNNY     58  29  33 NW8       30.24S
WINDOW ROCK    SUNNY     51  32  48 W8        30.26F
SHOW LOW       MOSUNNY   52  32  46 W3        30.28S
$$

AZZ023-210000-
GREATER PHOENIX AREA

CITY           SKY/WX    TMP DP  RH WIND       PRES   REMARKS
PHOENIX        PTSUNNY   67  47  48 CALM      30.21S
BUCKEYE        SUNNY     66  48  52 S3        30.23F
GLENDALE       MOSUNNY   68  46  45 VRB3      30.24S
LUKE AFB       SUNNY     67  47  48 CALM      30.21F
DEER VALLEY    SUNNY     65  46  50 W3        30.21S
SCOTTSDALE     PTSUNNY   65  44  46 VRB3      30.22F
MESA-FALCON    MOSUNNY  N/A N/A N/A W7        30.19F
MESA-GATEWAY   MOSUNNY   66  46  48 N5        30.23
CHANDLER       MOSUNNY   68  46  45 SW7       30.22F
$$

AZZ027-028-210000-
SOUTHWEST MARICOPA COUNTY AND PINAL COUNTY

CITY           SKY/WX    TMP DP  RH WIND       PRES   REMARKS
CASA GRANDE    NOT AVBL
GILA BEND      FAIR      68  49  49 CALM      30.21S
$$

AZZ503-504-507>509-210000-
SOUTHEAST ARIZONA

CITY           SKY/WX    TMP DP  RH WIND       PRES   REMARKS
TUCSON         SUNNY     67  41  38 W8        30.24S
DAVIS-MONTHAN  SUNNY     65  42  42 NW7       30.23S
RYAN FIELD     SUNNY     66  39  37 NW5       30.25R
NOGALES        SUNNY     65  37  35 W8        30.23S
SIERRA VISTA   SUNNY     62  37  38 VRB5      30.26S
DOUGLAS        SUNNY     63  38  39 NW10      30.24S
SAFFORD        SUNNY     65  38  36 NW14      30.19F
$$

AZZ020-021-025-026-031-210000-
SOUTHWEST ARIZONA

CITY           SKY/WX    TMP DP  RH WIND       PRES   REMARKS
YUMA           SUNNY     71  51  49 SE7       30.19F
$$

CAZ031-033-041-043-047-048-061-210000-
SOUTHERN CALIFORNIA

CITY           SKY/WX    TMP DP  RH WIND       PRES   REMARKS
DOWNTOWN L.A.  CLOUDY    64  53  67 CALM      30.22F
L.A. AIRPORT   CLOUDY    61  54  77 SE10      30.23S
SAN DIEGO      MOSUNNY   68  50  52 W9        30.24F
BURBANK        CLOUDY    60  51  72 SE14      30.22R
ONTARIO        PTSUNNY   63  52  67 CALM      30.22F
RIVERSIDE      CLOUDY    63  54  72 W6        30.22S
PALM SPRINGS   MOSUNNY   69  53  56 MISG      30.21R
EL CENTRO NAS  SUNNY     73  51  46 SE6       30.19S
IMPERIAL       SUNNY     73  54  51 E8        30.17F
BLYTHE         SUNNY     70  52  52 S8        30.19S
NEEDLES        CLOUDY    68  51  54 S9        30.19F
$$

NVZ020-UTZ003-210000-
SOUTHERN NEVADA-UTAH

CITY           SKY/WX    TMP DP  RH WIND       PRES   REMARKS
LAS VEGAS      MOSUNNY   66  45  46 S17G23    30.09S
SALT LAKE CITY PTSUNNY   55  35  47 S25G36    29.96S
$$

NMZ009-TXZ055-210000-
NEW MEXICO-WEST TEXAS

CITY           SKY/WX    TMP DP  RH WIND       PRES   REMARKS
ALBUQUERQUE    SUNNY     60  25  26 NW15      30.19R
EL PASO        SUNNY     67  21  17 NW16      30.16S
$$


........................KEY........................
SKY/WX - SKY CONDITION/WEATHER
TMP    - TEMPERATURE IN FAHRENHEIT
DP     - DEW POINT IN FAHRENHEIT
RH     - RELATIVE HUMIDITY IN PERCENT
WIND   - DIRECTION AND SPEED IN MILES PER HOUR (MPH)
VRB    - VARIABLE WIND DIRECTION
PRES   - MEAN SEA LEVEL PRESSURE IN INCHES OF MERCURY
         F - FALLING PRESSURE   R - RISING PRESSURE
         S - STEADY PRESSURE
VSB    - VISIBILITY IN MILES
HX     - HEAT INDEX IN FAHRENHEIT
WCI    - WIND CHILL INDEX IN FAHRENHEIT
TC     - TEMPERATURE IN CELSIUS WHICH IS ALSO KNOWN AS
         TEMPERATURE IN CENTIGRADE
AFB    - AIR FORCE BASE
         LUKE AFB IS LUKE AIR FORCE BASE
         DAVIS-MONTHAN IS DAVIS-MONTHAN AIR FORCE BASE
NAS    - NAVAL AIR STATION
         EL CENTRO NAS IS EL CENTRO NAVAL AIR STATION
N/A    - NOT AVAILABLE




USA.gov is the U.S. government's official web portal to all federal, state and local government web resources and services.